Tracking 31027 objects as of 19-Jul-2025
HD Live streaming from Space Station
objects crossing your sky now

STARLINK-4536

Track STARLINK-4536 now!
10-day predictions
STARLINK-4536 is classified as:


NORAD ID: 53783
Int'l Code: 2022-111L
Perigee: 546.3 km
Apogee: 547.6 km
Inclination: 53.2 °
Period: 95.4 minutes
Semi major axis: 6917 km
RCS: Unknown
Launch date: September 11, 2022
Source: United States (US)
Launch site: AIR FORCE EASTERN TEST RANGE (AFETR)
Your satellite tracking list
PRISMA
Track 1 satellite(s)




NASA's NSSDC Master Catalog

Two Line Element Set (TLE):
1 53783U 22111L   25199.50681713 -.00000348  00000-0 -37767-5 0  9992
2 53783  53.2175 245.3315 0000956  90.9456 269.1645 15.08829834158349
Source of the keplerian elements: AFSPC